www.pogodaiklimat.ru

Погода и климат >> Архив погоды >> Аргентина >> Villa Reynolds


ПОГОДА в Villa Reynolds

  • Прогноз погоды в Villa Reynolds
  • Монитор погоды в Villa Reynolds
  • Климат города

АРХИВ ПОГОДЫ в Villa Reynolds

Время (UTC), дата Ветер
(напр.,м/с)
 
Видим.   Явления Облачность Т
(С)
Тd
(С)
f
(%)
Тe
(С)
Тes
(С)
Комфортность P
(гПа)
Po
(гПа)
Тmin
(С)
Tmax
(С)
R
(мм)
R24
(мм)
S
(см)
15 14.06 ЮВ 1 15 км 1/0
[Ac As]
+8.3 -10.7 25 +8 +14 1033.2 973.3
18 14.06 СВ 3 15 км 1/1 1050 м
[Cu hum]
+10.9 -3.9 35 +10 +14 1031.0 971.4
21 14.06 В 4 15 км ясно +8.1 -2.2 48 +5 +5 1031.5 971.4
00 15.06 штиль 0 10 км ясно +0.3 -2.6 81 -1 -1 1033.7 972.9 -3.4 +11.1
06 15.06 СЗ 1 10 км ясно -5.5 -7.3 87 1033.1
09 15.06 штиль 0 10 км ясно -5.3 -6.4 92 1032.6
12 15.06 З 1 10 км 6/0
[Cs]
-4.8 -6 -6 1034.3 973.2 -6.7 +0.3
15 15.06 С 3 10 км 6/0
[Ac As Cs]
+11.0 -4.2 34 +10 +14 1032.7 973.3
18 15.06 штиль 0 15 км 4/3 1050 м
[Sc Ci sp]
+14.2 -3.0 30 +14 +19 1030.1 970.6
21 15.06 СВ 4 15 км 3/1 1050 м
[Sc Ac As]
+12.0 +0.3 45 +10 +10 1029.5 969.8
00 16.06 штиль 0 15 км ясно +4.0 -1.0 70 +4 +4 1030.2 970.4 -4.8 +14.2
03 16.06 штиль 0 10 км ясно -1.0 -3.7 82 -2 -2 1030.6 971.3
06 16.06 штиль 0 10 км ясно -2.4 -4.6 85 -4 -4 1029.6 970.5
09 16.06 штиль 0 10 км ясно -2.8 -4.1 91 -4 -4 1028.0 968.8
12 16.06 штиль 0 10 км ясно -0.5 -2.5 86 -2 -1 1029.0 969.0 -4.2 +4.0
15 16.06 штиль 0 10 км ясно +10.5 -3.9 36 +10 +18 1028.5 969.3
18 16.06 ЮВ 1 10 км 1/0
[Cs]
+16.4 -0.4 32 +17 +23 1025.5 966.9
21 16.06 СВ 3 10 км 1/0
[Cs]
+15.0 +1.5 40 +15 +15 1024.8 966.1
00 17.06 З 3 10 км 1/0
[Cs]
+3.8 -0.9 71 +1 +1 1026.9 967.0 -0.7 +17.4
03 17.06 З 3 10 км ясно +3.0 +0.4 83 -1 -1 1026.9 967.8
06 17.06 штиль 0 10 км ясно -2.7 -3.6 94 -4 -4 1025.4 966.8
09 17.06 штиль 0 10 км ясно -3.0 -4.3 91 -4 -4 1025.7 966.9
12 17.06 штиль 0 10 км 3/0
[Cs]
0.0 -2.9 81 -1 -1 1027.3 967.4 -3.6 +2.9
15 17.06 Ю 3 15 км 3/0
[Ci sp]
+14.5 -2.0 32 +14 +19 1025.4 967.2
18 17.06 В 3 15 км 3/0
[Ci sp]
+21.5 -2.1 20 +21 +25 комфорт 1023.2 965.2
21 17.06 В 3 15 км 1/0
[Ci sp]
+18.0 +1.0 32 +18 +18 1022.7 964.4
00 18.06 штиль 0 15 км ясно +3.4 -2.7 64 +3 +3 1024.4 964.8 0.0 +22.6
03 18.06 С 1 15 км ясно +1.2 -2.5 76 -1 -1 1023.7 965.4
06 18.06 СЗ 1 15 км ясно 0.0 -2.8 81 -2 -2 1021.9 964.2
09 18.06 штиль 0 15 км ясно -2.4 -5.0 82 -3 -3 1021.1 962.5
12 18.06 ЮЗ 4 15 км 4/0
[Ci sp]
+1.0 -3.7 71 -4 -4 1022.8 963.4 -3.2 +3.6
15 18.06 ЮВ 3 15 км 5/0
[Cs]
+14.8 +1.5 40 +14 +19 1021.6 963.4
18 18.06 С 3 15 км 5/0
[Cs]
+25.2 +1.6 21 +24 +28 комфорт 1017.0 960.0
21 18.06 С 4 15 км 5/0
[Cs]
+20.2 +2.3 30 +21 +21 комфорт 1016.3 958.6
00 19.06 С 3 10 км ясно +10.2 +3.1 61 +9 +9 1017.4 959.0 +1.0 +25.6
03 19.06 штиль 0 10 км 1/0
[Ci fib]
+6.9 +2.2 72 +6 +6 1017.4 960.0
06 19.06 штиль 0 10 км ясно +4.0 +0.5 78 +3 +3 1014.9 958.4
09 19.06 СЗ 1 10 км ясно +4.1 +1.4 83 +3 +3 1013.9 957.0
12 19.06 ЮЗ 4 10 км 6/0
[Cs]
+8.0 +1.6 64 +5 +5 1015.3 957.7 +3.0 +10.3
15 19.06 штиль 0 10 км 9/0
[Cs]
+16.8 +4.5 44 +17 +23 1014.8 957.8
18 19.06 ЮВ 4 10 км 9/0
[Cs]
+22.4 +4.2 30 +22 +25 комфорт 1012.8 956.1
21 19.06 СВ 3 10 км 9/0
[Cs]
+15.6 +5.0 49 +15 +15 1015.6 958.1
00 20.06 штиль 0 10 км 9/0
[Cs]
+8.0 +3.5 73 +7 +7 1019.0 961.0 +8.0 +23.1
03 20.06 штиль 0 10 км 6/0
[Cs]
+4.6 +2.7 87 +4 +4 1019.5 962.0
06 20.06 штиль 0 10 км ясно +3.2 +1.2 87 +2 +2 1018.6 961.4
09 20.06 штиль 0 10 км ясно -0.2 -1.3 92 -1 -1 1018.8 960.6
12 20.06 СЗ 3 10 км 5/0
[Cs]
-0.4 -1.5 92 -5 -5 1019.4 960.5 -1.6 +8.0
15 20.06 СВ 4 12 км 8/0
[Cs]
+14.4 +5.4 55 +13 +16 1017.6 959.8
18 20.06 ЮВ 3 15 км 5/0
[Cs]
+19.6 +6.0 41 +21 +25 комфорт 1012.7 955.7
21 20.06 штиль 0 15 км ясно +17.0 +7.4 53 +17 +17 1012.3 954.6
00 21.06 штиль 0 15 км ясно +7.0 +3.4 78 +6 +6 1015.7 956.9 -0.6 +20.3
03 21.06 ЮЗ 4 15 км ясно +8.6 +2.7 66 +6 +6 1017.2 960.0
06 21.06 ЮЗ 3 10 км ясно +6.5 +2.8 77 +4 +4 1019.4 962.2
09 21.06 штиль 0 10 км ясно +1.4 +0.1 91 0 0 1022.0 964.0
12 21.06 штиль 0 50 км ?/? 0.0 -2.3 84 -1 -1 1025.6 966.2 -1.3 +8.6

 

Местоположение метеостанции Villa Reynolds (Аргентина): широта -33.73 долгота -65.38 высота над уровнем моря 486 м.

В архиве по умолчанию представлена погода в Villa Reynolds за последнюю неделю. Архивные данные за месяц целиком и за предыдущие месяцы, начиная с января 2011 года, Вы можете получить, выбрав интересующий диапазон дат из раскрывающегося списка и нажав кнопку "Ввод!".


*Определитесь, кто Вы:
робот инопланетянин человек

Внимание! Время в таблицах - всемирное. Для получения местного времени необходимо прибавить поправку, которая в Villa Reynolds равна -3 ч.

Смотрите также архив погоды в соседних городах и на ближайших метеорологических станциях:

Погода в San Luis (Аргентина) (104 км)
Погода в Rio Cuarto (Аргентина) (125 км)
Погода в Laboulaye (Аргентина) (192 км)
Погода в Villa Dolores (Аргентина) (199 км)
Погода в General Pico (Аргентина) (265 км)
Погода в Pilar (Аргентина) (270 км)
Погода в San Martin (Аргентина) (290 км)
Погода в Cordoba (Аргентина) (291 км)
Погода в San Rafael (Аргентина) (294 км)
Погода в Marcos Juarez (Аргентина) (322 км)

Пояснения к столбцам:

Ветер - указаны скорость ветра в м/с - средняя за 10 мин, порывы в срок и между сроками (в фигурных скобках) и направление, откуда дует ветер: С - северный, СВ - северо-восточный, В - восточный, ЮВ - юго-восточный, Ю - южный, ЮЗ - юго-западный, З - западный, СЗ - северо-западный.
Видимость - горизонтальная дальность видимости в метрах или километрах. При видимости от 1 до 10 км при отсутствии осадков обычно наблюдается дымка, при ухудшении видимости до 1 км и менее - туман. В сухую погоду видимость может ухудшаться дымом, пылью или мглою.
Явления - указаны атмосферные явления, наблюдавшиеся в срок или в последний час перед сроком; фигурными скобками обозначены явления, наблюдавшиеся между сроками (за 1-3 часа до срока); квадратными скобками обозначены град или гололедные отложения с указанием их диаметра в мм.
Облачность - указаны через наклонную черту общая и нижняя облачность в баллах и высота нижней границы облаков в метрах; квадратными скобками обозначены формы облаков: Ci - перистые, Cs - перисто-слоистые, Cc - перисто-кучевые, Ac - высококучевые, As - высокослоистые, Sc - слоисто-кучевые, Ns - слоисто-дождевые, Cu - кучевые, Cb - кучево-дождевые. Подробнее классификацию облаков см. в Атласе облаков (PDF).
T - Температура воздуха - температура, измеренная на высоте 2 м над землей.
Td - Температура точки росы - температура, при понижении до которой содержащийся в воздухе водяной пар достигнет насыщения.
f - Относительная влажность воздуха - влажноcть воздуха, измеренная на высоте 2 м над землей.
Te - Эффективная температура - температура, которую ощущает одетый по сезону человек в тени. Характеристика душности погоды. При расчете учитывается влияние влажности воздуха и скорости ветра на теплоощущения человека.
Tes - Эффективная температура на солнце - температура, которую ощущает человек, с поправкой на солнечный нагрев. Характеристика знойности погоды. Зависит от высоты солнца над горизонтом, облачности и скорости ветра. Ночью, в пасмурную погоду, а также при ветре 12 м/с и более поправка равна нулю.
P - Атмосферное давление - приведенное к уровню моря атмосферное давление.
Po - Атмосферное давление - измеренное на уровне метеостанции атмосферное давление.
Tmin - Минимальная температура - минимум температуры воздуха на высоте 2 м над землей.
Tmax - Максимальная температура - максимум температуры воздуха на высоте 2 м над землей.
R - Количество осадков - Количество выпавших осадков за период времени, мм. При наведении курсора мыши на число - период времени, за который выпало указанное количество осадков.
R24 - Количество осадков - Количество выпавших осадков за 24 часа, мм.
S - Снежный покров - Высота снежного покрова, см. При наведении курсора мыши на число - состояние снежного покрова и степень покрытия местности в баллах.